Regional Weather Roundup
Issued by NWS Green Bay, WI

Home | Current Version | Previous Version | Graphics & Text | Print | Product List | Glossary Off
Versions: 1 2 3 4 5 6 7 8 9 10 11 12 13 14 15 16 17 18 19 20 21 22 23 24 25 26 27 28 29 30 31 32 33 34 35 36 37 38 39 40 41 42 43 44 45 46 47 48 49 50

000
ASUS43 KGRB 031100
RWRGRB

NORTH-CENTRAL AND NORTHEAST WISCONSIN REGIONAL WEATHER ROUNDUP
NATIONAL WEATHER SERVICE GREEN BAY WI
500 AM CST SAT DEC 03 2016

WIZ005-009-010>012-018-019-031200-
NORTH CENTRAL WISCONSIN

CITY           SKY/WX    TMP DP  RH WIND       PRES   REMARKS
IRONWOOD       NOT AVBL
MANITOWISH WTR NOT AVBL
ARBOR VITAE    NOT AVBL
EAGLE RIVER    NOT AVBL
LAND O LAKES   NOT AVBL
RHINELANDER    CLOUDY    27  24  89 W6        30.23S
PHILLIPS       CLOUDY    26  25  99 SW3       30.24S
ANTIGO         NOT AVBL
TOMAHAWK       NOT AVBL
MERRILL        CLOUDY    27  23  83 W7        30.27S
$$

WIZ013-073-031200-
NORTHEAST WISCONSIN

CITY           SKY/WX    TMP DP  RH WIND       PRES   REMARKS
IRON MOUNTAIN  CLOUDY    31  27  85 CALM      30.22S
MARINETTE      NOT AVBL
$$

WIZ017-030-035>037-045-031200-
CENTRAL WISCONSIN

CITY           SKY/WX    TMP DP  RH WIND       PRES   REMARKS
MEDFORD        NOT AVBL
WAUSAU         CLOUDY    28  22  78 W7        30.27R
MOSINEE        NOT AVBL
MARSHFIELD     CLOUDY    29  22  75 W5        30.26R
WISC RAPIDS    CLOUDY    30  23  75 W5        30.30R
STEVENS POINT  NOT AVBL
WAUPACA        CLOUDY    32  25  74 CALM      30.30R
SHAWANO        CLOUDY    33  26  75 W3        30.28S
CLINTONVILLE   CLOUDY    32  23  69 W7        30.29R
WAUTOMA        NOT AVBL
$$

WIZ038-039-048-051-031200-
FOX VALLEY

CITY           SKY/WX    TMP DP  RH WIND       PRES   REMARKS
NWS GREEN BAY  CLOUDY    34  28  79 W6        30.28
APPLETON       NOT AVBL
OSHKOSH        CLOUDY    31  23  72 W7        30.29R
FOND DU LAC    CLOUDY    31  22  69 NW7       30.30S
$$

WIZ022-050-052-031200-
EAST CENTRAL WISCONSIN

CITY           SKY/WX    TMP DP  RH WIND       PRES   REMARKS
EPHRAIM        NOT AVBL
WASHINGTON ISL NOT AVBL
STURGEON BAY   NOT AVBL
MANITOWOC      NOT AVBL
SHEBOYGAN      CLOUDY    31  24  75 W8        30.29S
$$

LMZ563-521-522-541>543-031200-
LAKESHORE

STATION/POSITION TIME  TEMP    WIND        PRES    VSBY  WAVE
                       AIR SEA DIR/SP/G                  HT/PER
                 (UTC) (F)     (DEG/KT/KT) (MB)    (MI)  (FT/S)
SHEBOYGAN LKSHOR 1000   33     260/ 10/ 13 1026.2R
KEWAUNEE LKSHORE 1030   33     280/  6/  8 1024.4R
ALGOMA MARINA    1051          270/  2/  5   N/A
NORTHPORT PIER   1040   37     300/  9/ 12 1024.0S
SISTER BAY LKSHO 1009   37     330/ 14/ 16   N/A
CHAMBERS ISLAND  1040   35     280/  5/ 10 1024.0S
MENOMINEE LKSHOR 1030   34     270/  5/  7 1023.9R
$$




USA.gov is the U.S. government's official web portal to all federal, state and local government web resources and services.